Mountain Home, AR

7:16 AM CDT on October 15, 2019 (GMT -0500)
Baxter County Regional

Weather History for KBPK - August, 2019

Change the Weather History Date:

Thursday, August 15, 2019

  Actual Average (KFLP) Record (KFLP)
Temperature  
Mean Temperature 78 °F -  
Max Temperature 88 °F 88 °F 104 °F (2007)
Min Temperature 68 °F 64 °F 53 °F (2013)
Cooling Degree Days 13    
Growing Degree Days 28 (Base 50)    
Moisture  
Dew Point 68 °F    
Average Humidity 73    
Maximum Humidity 96    
Minimum Humidity 46    
Precipitation  
Precipitation 0.00 in - - ()
Sea Level Pressure  
Sea Level Pressure 30.00 in    
Wind  
Wind Speed 1 mph (South)    
Max Wind Speed 6 mph    
Max Gust Speed -    
Visibility 10 miles    
Events      
Averages and records for this station are not official NWS values.
T = Trace of Precipitation, MM = Missing Value Source: NWS Daily Summary

Daily Weather History Graph

Daily Weather History Graph

Search for Another Location

Airport or City:

Astronomy

Aug. 15, 2019 Rise Set
Actual Time 6:27 AM CDT 8:00 PM CDT
Civil Twilight 6:00 AM CDT 8:27 PM CDT
Nautical Twilight 5:27 AM CDT 9:00 PM CDT
Astronomical Twilight 4:52 AM CDT 9:35 PM CDT
Moon 8:28 PM CDT 6:23 AM CDT
Length of Visible Light 14h 27m
Length of Day
13h 33m
Full, 100% of the Moon is Illuminated
Aug 15
Full
Aug 23
Last Quarter
Aug 30
New
Sep 5
First Quarter
Sep 13
Full

Hourly Weather History & Observations

Time (CDT) Temp. Heat Index Dew Point Humidity Pressure Visibility Wind Dir Wind Speed Gust Speed Precip Events Conditions
12:53 AM 73.0 °F - 66.9 °F 81% 30.03 in 10.0 mi Calm Calm - N/A   Clear
1:53 AM 70.0 °F - 66.9 °F 90% 30.01 in 10.0 mi Calm Calm - N/A   Clear
2:53 AM 69.1 °F - 68.0 °F 96% 30.01 in 10.0 mi Calm Calm - N/A   Clear
4:53 AM 69.1 °F - 68.0 °F 96% 30.02 in 10.0 mi Calm Calm - N/A   Clear
5:53 AM 69.1 °F - 66.0 °F 90% 30.02 in 10.0 mi Calm Calm - N/A   Clear
6:53 AM 68.0 °F - 64.9 °F 90% 30.04 in 10.0 mi Calm Calm - N/A   Clear
7:53 AM 71.1 °F - 64.9 °F 81% 30.04 in 10.0 mi Calm Calm - N/A   Clear
8:53 AM 73.9 °F - 66.0 °F 76% 30.06 in 10.0 mi SE 4.6 mph - N/A   Clear
9:53 AM 77.0 °F - 66.9 °F 71% 30.06 in 10.0 mi SSE 4.6 mph - N/A   Clear
10:53 AM 80.1 °F 82.7 °F 68.0 °F 67% 30.05 in 10.0 mi Variable 5.8 mph - N/A   Clear
11:53 AM 82.0 °F 85.5 °F 69.1 °F 65% 30.04 in 10.0 mi South 3.5 mph - N/A   Clear
12:53 PM 84.0 °F 87.8 °F 69.1 °F 61% 30.02 in 10.0 mi Calm Calm - N/A   Clear
1:53 PM 84.9 °F 88.8 °F 69.1 °F 59% 30.02 in 10.0 mi Calm Calm - N/A   Clear
2:53 PM 87.1 °F 92.0 °F 70.0 °F 57% 30.01 in 10.0 mi Calm Calm - N/A   Clear
3:53 PM 87.1 °F 89.9 °F 66.9 °F 51% 29.97 in 10.0 mi Calm Calm - N/A   Clear
4:53 PM 88.0 °F 90.7 °F 66.9 °F 49% 29.96 in 10.0 mi Variable 3.5 mph - N/A   Clear
5:53 PM 88.0 °F 89.6 °F 64.9 °F 46% 29.95 in 10.0 mi Calm Calm - N/A   Clear
6:53 PM 84.9 °F 89.4 °F 70.0 °F 61% 29.95 in 10.0 mi South 4.6 mph - N/A   Clear
7:53 PM 80.1 °F 82.9 °F 69.1 °F 69% 29.94 in 10.0 mi SSW 4.6 mph - N/A   Clear
8:53 PM 78.1 °F - 69.1 °F 74% 29.94 in 10.0 mi South 3.5 mph - N/A   Clear
9:53 PM 77.0 °F - 68.0 °F 74% 29.94 in 10.0 mi SSE 3.5 mph - N/A   Clear
10:53 PM 75.0 °F - 68.0 °F 79% 29.96 in 10.0 mi South 3.5 mph - N/A   Clear
11:53 PM 73.9 °F - 69.1 °F 85% 29.96 in 10.0 mi South 3.5 mph - N/A   Clear